Time,TemperatureF,DewpointF,PressureIn,WindDirection,WindDirectionDegrees,WindSpeedMPH,WindSpeedGustMPH,Humidity,HourlyPrecipIn,Conditions,Clouds,dailyrainin,SoftwareType,DateUTC
2013-05-16 00:01:00,65.2,44.9,29.72,WSW,248,0.4,2.7,48,0.00,,,0.00,WUHU216HW,2013-05-16 05:01:00,
2013-05-16 00:06:00,65.2,44.9,29.72,South,180,2.5,2.7,48,0.00,,,0.00,WUHU216HW,2013-05-16 05:06:00,
2013-05-16 00:11:00,65.2,44.9,29.72,NNW,338,0.4,2.5,48,0.00,,,0.00,WUHU216HW,2013-05-16 05:11:00,
2013-05-16 00:16:00,65.2,44.9,29.72,North,0,1.3,2.2,48,0.00,,,0.00,WUHU216HW,2013-05-16 05:16:00,
2013-05-16 00:21:00,65.3,45.1,29.72,NNW,338,0.9,4.0,48,0.00,,,0.00,WUHU216HW,2013-05-16 05:21:00,
2013-05-16 00:26:00,65.3,45.1,29.72,NW,315,2.7,4.0,48,0.00,,,0.00,WUHU216HW,2013-05-16 05:26:00,
2013-05-16 00:31:00,65.3,45.1,29.73,NNW,338,2.0,4.7,48,0.00,,,0.00,WUHU216HW,2013-05-16 05:31:00,
2013-05-16 00:36:00,65.5,45.3,29.73,NW,315,2.2,4.7,48,0.00,,,0.00,WUHU216HW,2013-05-16 05:36:00,
2013-05-16 00:41:00,65.3,45.1,29.73,NNW,338,4.9,4.9,48,0.00,,,0.00,WUHU216HW,2013-05-16 05:41:00,
2013-05-16 00:46:00,65.3,45.1,29.73,East,90,2.5,4.9,48,0.00,,,0.00,WUHU216HW,2013-05-16 05:46:00,
2013-05-16 00:51:00,65.2,44.9,29.72,South,180,4.9,4.9,48,0.00,,,0.00,WUHU216HW,2013-05-16 05:51:00,
2013-05-16 00:56:00,65.2,44.9,29.73,NW,315,2.0,5.4,48,0.00,,,0.00,WUHU216HW,2013-05-16 05:56:00,
2013-05-16 01:01:00,65.2,44.9,29.73,SE,135,4.0,5.4,48,0.00,,,0.00,WUHU216HW,2013-05-16 06:01:00,
2013-05-16 01:06:00,64.8,44.6,29.73,NW,315,4.3,4.5,48,0.00,,,0.00,WUHU216HW,2013-05-16 06:06:00,
2013-05-16 01:11:00,64.6,45.0,29.73,WSW,248,1.8,4.3,49,0.00,,,0.00,WUHU216HW,2013-05-16 06:11:00,
2013-05-16 01:16:00,64.4,44.8,29.73,WSW,248,1.1,2.5,49,0.00,,,0.00,WUHU216HW,2013-05-16 06:16:00,
2013-05-16 01:21:00,64.4,44.8,29.73,West,270,1.8,3.1,49,0.00,,,0.00,WUHU216HW,2013-05-16 06:21:00,
2013-05-16 01:26:00,64.4,45.4,29.73,North,0,3.8,3.8,50,0.00,,,0.00,WUHU216HW,2013-05-16 06:26:00,
2013-05-16 01:31:00,64.4,44.8,29.72,ENE,68,1.8,3.8,49,0.00,,,0.00,WUHU216HW,2013-05-16 06:31:00,
2013-05-16 01:36:00,64.6,45.0,29.72,ESE,113,2.5,5.1,49,0.00,,,0.00,WUHU216HW,2013-05-16 06:36:00,
2013-05-16 01:41:00,64.8,45.2,29.73,East,90,2.0,5.1,49,0.00,,,0.00,WUHU216HW,2013-05-16 06:41:00,
2013-05-16 01:46:00,65.0,45.4,29.72,SW,225,3.1,4.3,49,0.00,,,0.00,WUHU216HW,2013-05-16 06:46:00,
2013-05-16 01:51:00,64.8,45.2,29.72,SE,135,6.7,6.7,49,0.00,,,0.00,WUHU216HW,2013-05-16 06:51:00,
2013-05-16 01:56:00,65.0,45.4,29.72,ESE,113,3.1,6.7,49,0.00,,,0.00,WUHU216HW,2013-05-16 06:56:00,
2013-05-16 02:01:00,65.2,44.9,29.72,SW,225,3.6,5.4,48,0.00,,,0.00,WUHU216HW,2013-05-16 07:01:00,
2013-05-16 02:06:00,65.2,44.9,29.72,SW,225,4.0,4.3,48,0.00,,,0.00,WUHU216HW,2013-05-16 07:06:00,
2013-05-16 02:11:00,65.2,44.9,29.72,South,180,2.9,4.0,48,0.00,,,0.00,WUHU216HW,2013-05-16 07:11:00,
2013-05-16 02:16:00,65.2,44.9,29.72,ENE,68,4.9,4.9,48,0.00,,,0.00,WUHU216HW,2013-05-16 07:16:00,
2013-05-16 02:21:00,65.2,44.9,29.72,SW,225,2.5,6.7,48,0.00,,,0.00,WUHU216HW,2013-05-16 07:21:00,
2013-05-16 02:26:00,65.3,44.5,29.72,NNW,338,4.7,6.7,47,0.00,,,0.00,WUHU216HW,2013-05-16 07:26:00,
2013-05-16 02:31:00,65.2,44.9,29.72,WSW,248,3.4,4.9,48,0.00,,,0.00,WUHU216HW,2013-05-16 07:31:00,
2013-05-16 02:36:00,64.8,44.6,29.72,NNW,338,1.3,4.9,48,0.00,,,0.00,WUHU216HW,2013-05-16 07:36:00,
2013-05-16 02:41:00,64.6,44.4,29.72,WNW,293,4.0,4.0,48,0.00,,,0.00,WUHU216HW,2013-05-16 07:41:00,
2013-05-16 02:46:00,64.4,44.2,29.72,NNW,338,3.4,4.0,48,0.00,,,0.00,WUHU216HW,2013-05-16 07:46:00,
2013-05-16 02:51:00,64.3,44.0,29.72,NNW,338,2.7,3.8,48,0.00,,,0.00,WUHU216HW,2013-05-16 07:51:00,
2013-05-16 02:56:00,64.4,44.2,29.72,NNW,338,3.4,3.4,48,0.00,,,0.00,WUHU216HW,2013-05-16 07:56:00,
2013-05-16 03:01:00,64.4,44.2,29.73,East,90,4.0,4.0,48,0.00,,,0.00,WUHU216HW,2013-05-16 08:01:00,
2013-05-16 03:06:00,64.6,44.4,29.73,North,0,1.1,4.0,48,0.00,,,0.00,WUHU216HW,2013-05-16 08:06:00,
2013-05-16 03:11:00,64.4,44.2,29.72,SSW,203,4.0,4.0,48,0.00,,,0.00,WUHU216HW,2013-05-16 08:11:00,
2013-05-16 03:16:00,64.4,43.7,29.73,NW,315,2.7,4.0,47,0.00,,,0.00,WUHU216HW,2013-05-16 08:16:00,
2013-05-16 03:21:00,64.3,44.0,29.73,SSW,203,3.1,3.1,48,0.00,,,0.00,WUHU216HW,2013-05-16 08:21:00,
2013-05-16 03:26:00,64.3,44.0,29.73,NNW,338,0.9,3.1,48,0.00,,,0.00,WUHU216HW,2013-05-16 08:26:00,
2013-05-16 03:31:00,64.1,43.9,29.73,SW,225,4.7,4.7,48,0.00,,,0.00,WUHU216HW,2013-05-16 08:31:00,
2013-05-16 03:36:00,63.9,43.8,29.73,NW,315,2.9,4.7,48,0.00,,,0.00,WUHU216HW,2013-05-16 08:36:00,
2013-05-16 03:41:00,63.7,43.6,29.73,North,0,2.5,4.0,48,0.00,,,0.00,WUHU216HW,2013-05-16 08:41:00,
2013-05-16 03:46:00,63.9,43.8,29.73,NNW,338,1.8,4.0,48,0.00,,,0.00,WUHU216HW,2013-05-16 08:46:00,
2013-05-16 03:51:00,64.1,43.9,29.72,WNW,293,4.0,5.1,48,0.00,,,0.00,WUHU216HW,2013-05-16 08:51:00,
2013-05-16 03:56:00,64.4,43.7,29.72,NW,315,4.9,5.6,47,0.00,,,0.00,WUHU216HW,2013-05-16 08:56:00,
2013-05-16 04:00:00,64.4,43.7,29.73,SSE,158,6.5,6.5,47,0.00,,,0.00,WUHU216HW,2013-05-16 09:00:00,
2013-05-16 04:05:00,64.8,43.4,29.73,South,180,5.4,6.5,46,0.00,,,0.00,WUHU216HW,2013-05-16 09:05:00,
2013-05-16 04:10:00,65.0,43.6,29.72,NE,45,5.8,5.8,46,0.00,,,0.00,WUHU216HW,2013-05-16 09:10:00,
2013-05-16 04:15:00,65.2,43.2,29.72,SW,225,4.0,5.8,45,0.00,,,0.00,WUHU216HW,2013-05-16 09:15:00,
2013-05-16 04:20:00,65.3,43.4,29.72,ESE,113,4.9,5.4,45,0.00,,,0.00,WUHU216HW,2013-05-16 09:20:00,
2013-05-16 04:25:00,65.5,43.5,29.72,WSW,248,5.4,5.6,45,0.00,,,0.00,WUHU216HW,2013-05-16 09:25:00,
2013-05-16 04:30:00,65.3,42.8,29.72,SW,225,3.8,5.6,44,0.00,,,0.00,WUHU216HW,2013-05-16 09:30:00,
2013-05-16 04:35:00,65.3,43.4,29.72,NW,315,3.1,4.9,45,0.00,,,0.00,WUHU216HW,2013-05-16 09:35:00,
2013-05-16 04:40:00,65.2,42.6,29.73,NNW,338,4.3,4.9,44,0.00,,,0.00,WUHU216HW,2013-05-16 09:40:00,
2013-05-16 04:45:00,65.2,42.6,29.73,WNW,293,6.3,6.3,44,0.00,,,0.00,WUHU216HW,2013-05-16 09:45:00,
2013-05-16 04:50:00,65.2,43.2,29.73,SW,225,3.6,6.3,45,0.00,,,0.00,WUHU216HW,2013-05-16 09:50:00,
2013-05-16 04:55:00,64.8,42.9,29.73,WNW,293,2.7,6.3,45,0.00,,,0.00,WUHU216HW,2013-05-16 09:55:00,
2013-05-16 05:00:00,64.8,42.2,29.73,NNW,338,5.8,6.3,44,0.00,,,0.00,WUHU216HW,2013-05-16 10:00:00,
2013-05-16 05:05:00,64.8,42.2,29.73,East,90,1.8,5.8,44,0.00,,,0.00,WUHU216HW,2013-05-16 10:05:00,
2013-05-16 05:10:00,64.4,42.5,29.73,WNW,293,1.3,5.1,45,0.00,,,0.00,WUHU216HW,2013-05-16 10:10:00,
2013-05-16 05:15:00,64.4,42.5,29.73,NW,315,6.0,6.0,45,0.00,,,0.00,WUHU216HW,2013-05-16 10:15:00,
2013-05-16 05:20:00,64.8,42.2,29.73,NW,315,2.7,6.0,44,0.00,,,0.00,WUHU216HW,2013-05-16 10:20:00,
2013-05-16 05:25:00,65.0,42.4,29.74,North,0,4.0,5.1,44,0.00,,,0.00,WUHU216HW,2013-05-16 10:25:00,
2013-05-16 05:30:00,65.0,42.4,29.73,North,0,3.1,5.1,44,0.00,,,0.00,WUHU216HW,2013-05-16 10:30:00,
2013-05-16 05:35:00,64.8,42.2,29.74,WNW,293,2.2,4.7,44,0.00,,,0.00,WUHU216HW,2013-05-16 10:35:00,
2013-05-16 05:40:00,64.8,42.2,29.74,North,0,4.0,4.9,44,0.00,,,0.00,WUHU216HW,2013-05-16 10:40:00,
2013-05-16 05:45:00,64.6,42.0,29.74,NE,45,3.4,4.9,44,0.00,,,0.00,WUHU216HW,2013-05-16 10:45:00,
2013-05-16 05:50:00,64.3,42.3,29.74,NW,315,0.7,4.9,45,0.00,,,0.00,WUHU216HW,2013-05-16 10:50:00,
2013-05-16 05:55:00,63.4,42.1,29.75,NW,315,0.0,4.7,46,0.00,,,0.00,WUHU216HW,2013-05-16 10:55:00,
2013-05-16 06:00:00,61.2,41.9,29.75,SE,135,0.9,1.1,49,0.00,,,0.00,WUHU216HW,2013-05-16 11:00:00,
2013-05-16 06:05:00,59.0,41.0,29.75,ESE,113,0.0,1.3,51,0.00,,,0.00,WUHU216HW,2013-05-16 11:05:00,
2013-05-16 06:10:00,58.7,41.1,29.75,ESE,113,0.0,1.3,52,0.00,,,0.00,WUHU216HW,2013-05-16 11:10:00,
2013-05-16 06:15:00,58.5,41.0,29.76,North,0,0.0,1.1,52,0.00,,,0.00,WUHU216HW,2013-05-16 11:15:00,
2013-05-16 06:20:00,58.1,41.1,29.76,ESE,113,0.4,0.4,53,0.00,,,0.00,WUHU216HW,2013-05-16 11:20:00,
2013-05-16 06:25:00,58.1,41.6,29.76,ESE,113,0.4,1.8,54,0.00,,,0.00,WUHU216HW,2013-05-16 11:25:00,
2013-05-16 06:30:00,57.8,42.2,29.76,ESE,113,1.8,2.0,56,0.00,,,0.00,WUHU216HW,2013-05-16 11:30:00,
2013-05-16 06:35:00,57.6,41.6,29.76,ESE,113,1.6,2.0,55,0.00,,,0.00,WUHU216HW,2013-05-16 11:35:00,
2013-05-16 06:40:00,57.4,41.9,29.76,ESE,113,1.6,3.4,56,0.00,,,0.00,WUHU216HW,2013-05-16 11:40:00,
2013-05-16 06:45:00,57.4,42.3,29.77,ESE,113,0.4,3.4,57,0.00,,,0.00,WUHU216HW,2013-05-16 11:45:00,
2013-05-16 06:50:00,57.6,42.9,29.77,ESE,113,1.1,1.8,58,0.00,,,0.00,WUHU216HW,2013-05-16 11:50:00,
2013-05-16 06:55:00,58.1,43.9,29.77,SE,135,0.2,2.0,59,0.00,,,0.00,WUHU216HW,2013-05-16 11:55:00,
2013-05-16 07:00:00,58.9,44.6,29.77,ESE,113,1.8,2.5,59,0.00,,,0.00,WUHU216HW,2013-05-16 12:00:00,
2013-05-16 07:05:00,59.4,45.1,29.78,ESE,113,1.1,2.5,59,0.00,,,0.00,WUHU216HW,2013-05-16 12:05:00,
2013-05-16 07:10:00,59.9,46.1,29.78,ESE,113,1.8,1.8,60,0.00,,,0.00,WUHU216HW,2013-05-16 12:10:00,
2013-05-16 07:15:00,60.3,46.0,29.77,East,90,2.0,2.0,59,0.00,,,0.00,WUHU216HW,2013-05-16 12:15:00,
2013-05-16 07:20:00,60.3,46.0,29.78,ESE,113,1.3,2.2,59,0.00,,,0.00,WUHU216HW,2013-05-16 12:20:00,
2013-05-16 07:25:00,60.5,46.2,29.78,ESE,113,2.2,2.5,59,0.00,,,0.00,WUHU216HW,2013-05-16 12:25:00,
2013-05-16 07:30:00,60.7,46.4,29.78,ESE,113,1.3,2.5,59,0.00,,,0.00,WUHU216HW,2013-05-16 12:30:00,
2013-05-16 07:35:00,61.0,47.2,29.78,ESE,113,2.7,2.7,60,0.00,,,0.00,WUHU216HW,2013-05-16 12:35:00,
2013-05-16 07:40:00,61.0,46.6,29.78,ESE,113,2.0,2.7,59,0.00,,,0.00,WUHU216HW,2013-05-16 12:40:00,
2013-05-16 07:45:00,61.2,46.8,29.79,East,90,0.4,2.2,59,0.00,,,0.00,WUHU216HW,2013-05-16 12:45:00,
2013-05-16 07:50:00,61.7,47.4,29.79,ESE,113,1.1,2.7,59,0.00,,,0.00,WUHU216HW,2013-05-16 12:50:00,
2013-05-16 07:55:00,61.9,47.4,29.79,ESE,113,1.8,2.7,59,0.00,,,0.00,WUHU216HW,2013-05-16 12:55:00,
2013-05-16 08:00:00,62.3,47.8,29.79,ESE,113,1.6,2.5,59,0.00,,,0.00,WUHU216HW,2013-05-16 13:00:00,
2013-05-16 08:05:00,63.0,48.4,29.79,SE,135,0.7,2.5,59,0.00,,,0.00,WUHU216HW,2013-05-16 13:05:00,
2013-05-16 08:10:00,63.7,49.1,29.79,ESE,113,2.2,2.5,59,0.00,,,0.00,WUHU216HW,2013-05-16 13:10:00,
2013-05-16 08:15:00,64.4,48.8,29.79,ESE,113,0.9,2.5,57,0.00,,,0.00,WUHU216HW,2013-05-16 13:15:00,
2013-05-16 08:20:00,64.8,48.6,29.79,ESE,113,2.0,2.5,56,0.00,,,0.00,WUHU216HW,2013-05-16 13:20:00,
2013-05-16 08:25:00,65.2,48.5,29.79,ESE,113,0.7,2.0,55,0.00,,,0.00,WUHU216HW,2013-05-16 13:25:00,
2013-05-16 08:30:00,65.5,48.4,29.79,ESE,113,2.2,3.1,54,0.00,,,0.00,WUHU216HW,2013-05-16 13:30:00,
2013-05-16 08:35:00,65.5,48.9,29.79,ESE,113,3.4,3.4,55,0.00,,,0.00,WUHU216HW,2013-05-16 13:35:00,
2013-05-16 08:40:00,65.5,49.3,29.79,East,90,3.4,3.4,56,0.00,,,0.00,WUHU216HW,2013-05-16 13:40:00,
2013-05-16 08:45:00,65.7,49.5,29.79,ESE,113,2.5,3.4,56,0.00,,,0.00,WUHU216HW,2013-05-16 13:45:00,
2013-05-16 08:50:00,66.1,49.4,29.79,ESE,113,1.6,3.4,55,0.00,,,0.00,WUHU216HW,2013-05-16 13:50:00,
2013-05-16 08:55:00,66.6,50.0,29.79,ESE,113,0.0,2.7,55,0.00,,,0.00,WUHU216HW,2013-05-16 13:55:00,
2013-05-16 09:00:00,67.0,49.2,29.79,East,90,0.7,1.1,53,0.00,,,0.00,WUHU216HW,2013-05-16 14:00:00,
2013-05-16 09:05:00,67.5,49.2,29.79,NNW,338,1.3,1.3,52,0.00,,,0.00,WUHU216HW,2013-05-16 14:05:00,
2013-05-16 09:10:00,67.9,49.2,29.79,NNW,338,1.1,1.3,51,0.00,,,0.00,WUHU216HW,2013-05-16 14:10:00,
2013-05-16 09:15:00,68.0,48.8,29.78,NNW,338,2.5,2.5,50,0.00,,,0.00,WUHU216HW,2013-05-16 14:15:00,
2013-05-16 09:20:00,68.0,48.8,29.79,North,0,0.9,2.9,50,0.00,,,0.00,WUHU216HW,2013-05-16 14:20:00,
2013-05-16 09:25:00,68.4,48.5,29.78,North,0,1.1,2.9,49,0.00,,,0.00,WUHU216HW,2013-05-16 14:25:00,
2013-05-16 09:30:00,68.6,48.1,29.79,North,0,2.2,3.4,48,0.00,,,0.00,WUHU216HW,2013-05-16 14:30:00,
2013-05-16 09:35:00,68.9,48.4,29.79,NNW,338,2.0,4.7,48,0.00,,,0.00,WUHU216HW,2013-05-16 14:35:00,
2013-05-16 09:40:00,69.3,48.2,29.79,WSW,248,1.1,4.7,47,0.00,,,0.00,WUHU216HW,2013-05-16 14:40:00,
2013-05-16 09:45:00,69.8,49.2,29.79,WSW,248,0.9,4.0,48,0.00,,,0.00,WUHU216HW,2013-05-16 14:45:00,
2013-05-16 09:50:00,70.2,49.5,29.79,SW,225,1.8,3.4,48,0.00,,,0.00,WUHU216HW,2013-05-16 14:50:00,
2013-05-16 09:55:00,70.6,49.9,29.79,SW,225,0.4,3.4,48,0.00,,,0.00,WUHU216HW,2013-05-16 14:55:00,
2013-05-16 10:00:00,70.9,49.6,29.79,SW,225,0.7,1.8,47,0.00,,,0.00,WUHU216HW,2013-05-16 15:00:00,
2013-05-16 10:05:00,71.1,49.8,29.79,SW,225,0.7,0.7,47,0.00,,,0.00,WUHU216HW,2013-05-16 15:05:00,
2013-05-16 10:10:00,71.5,50.0,29.79,SW,225,0.2,0.9,47,0.00,,,0.00,WUHU216HW,2013-05-16 15:10:00,
2013-05-16 10:15:00,72.0,50.0,29.79,West,270,0.7,1.1,46,0.00,,,0.00,WUHU216HW,2013-05-16 15:15:00,
2013-05-16 10:20:00,72.9,50.8,29.78,NNW,338,2.9,2.9,46,0.00,,,0.00,WUHU216HW,2013-05-16 15:20:00,
2013-05-16 10:25:00,73.3,50.0,29.78,WNW,293,4.7,4.7,44,0.00,,,0.00,WUHU216HW,2013-05-16 15:25:00,
2013-05-16 10:30:00,73.4,50.7,29.78,NW,315,0.0,4.7,45,0.00,,,0.00,WUHU216HW,2013-05-16 15:30:00,
2013-05-16 10:35:00,73.6,50.2,29.78,NW,315,0.4,4.0,44,0.00,,,0.00,WUHU216HW,2013-05-16 15:35:00,
2013-05-16 10:40:00,74.2,50.8,29.78,NNW,338,0.4,3.8,44,0.00,,,0.00,WUHU216HW,2013-05-16 15:40:00,
2013-05-16 10:45:00,74.5,51.1,29.78,North,0,1.1,2.5,44,0.00,,,0.00,WUHU216HW,2013-05-16 15:45:00,
2013-05-16 10:50:00,74.5,50.5,29.78,ESE,113,5.1,5.8,43,0.00,,,0.00,WUHU216HW,2013-05-16 15:50:00,
2013-05-16 10:55:00,74.7,50.7,29.78,North,0,3.1,5.8,43,0.00,,,0.00,WUHU216HW,2013-05-16 15:55:00,
2013-05-16 11:00:00,75.2,51.1,29.78,North,0,0.0,3.4,43,0.00,,,0.00,WUHU216HW,2013-05-16 16:00:00,
2013-05-16 11:05:00,75.6,51.5,29.77,North,0,1.3,2.0,43,0.00,,,0.00,WUHU216HW,2013-05-16 16:05:00,
2013-05-16 11:10:00,75.8,51.0,29.78,North,0,2.0,2.0,42,0.00,,,0.00,WUHU216HW,2013-05-16 16:10:00,
2013-05-16 11:15:00,76.1,51.4,29.78,North,0,1.3,2.0,42,0.00,,,0.00,WUHU216HW,2013-05-16 16:15:00,
2013-05-16 11:19:00,76.7,51.2,29.78,SE,135,2.7,2.7,41,0.00,,,0.00,WUHU216HW,2013-05-16 16:19:00,
2013-05-16 11:24:00,77.2,51.1,29.77,NW,315,0.0,2.7,40,0.00,,,0.00,WUHU216HW,2013-05-16 16:24:00,
2013-05-16 11:29:00,77.6,52.0,29.77,ESE,113,1.1,2.7,41,0.00,,,0.00,WUHU216HW,2013-05-16 16:29:00,
2013-05-16 11:34:00,78.7,53.0,29.77,WSW,248,0.2,1.8,41,0.00,,,0.00,WUHU216HW,2013-05-16 16:34:00,
2013-05-16 11:39:00,80.1,52.9,29.78,ESE,113,0.4,2.5,39,0.00,,,0.00,WUHU216HW,2013-05-16 16:39:00,
2013-05-16 11:44:00,81.4,53.3,29.77,NW,315,3.4,3.4,38,0.00,,,0.00,WUHU216HW,2013-05-16 16:44:00,
2013-05-16 11:49:00,81.9,53.7,29.77,North,0,3.1,3.4,38,0.00,,,0.00,WUHU216HW,2013-05-16 16:49:00,
2013-05-16 11:54:00,82.4,53.5,29.77,North,0,1.6,3.1,37,0.00,,,0.00,WUHU216HW,2013-05-16 16:54:00,
2013-05-16 11:59:00,83.0,53.1,29.77,NNW,338,1.1,2.5,36,0.00,,,0.00,WUHU216HW,2013-05-16 16:59:00,
2013-05-16 12:04:00,83.7,54.5,29.77,North,0,1.1,4.0,37,0.00,,,0.00,WUHU216HW,2013-05-16 17:04:00,
2013-05-16 12:09:00,85.0,54.1,29.76,NNW,338,2.5,4.9,35,0.00,,,0.00,WUHU216HW,2013-05-16 17:09:00,
2013-05-16 12:14:00,85.5,53.8,29.76,North,0,0.9,4.9,34,0.00,,,0.00,WUHU216HW,2013-05-16 17:14:00,
2013-05-16 12:19:00,85.9,54.1,29.76,North,0,1.3,2.5,34,0.00,,,0.00,WUHU216HW,2013-05-16 17:19:00,
2013-05-16 12:24:00,86.8,54.9,29.76,NW,315,2.2,2.2,34,0.00,,,0.00,WUHU216HW,2013-05-16 17:24:00,
2013-05-16 12:29:00,86.9,51.8,29.76,ESE,113,2.0,3.6,30,0.00,,,0.00,WUHU216HW,2013-05-16 17:29:00,
2013-05-16 12:34:00,85.0,50.1,29.76,East,90,4.0,4.5,30,0.00,,,0.00,WUHU216HW,2013-05-16 17:34:00,
2013-05-16 12:39:00,85.0,52.6,29.76,SSW,203,1.1,4.5,33,0.00,,,0.00,WUHU216HW,2013-05-16 17:39:00,
2013-05-16 12:44:00,86.0,53.5,29.76,SSW,203,1.1,2.7,33,0.00,,,0.00,WUHU216HW,2013-05-16 17:44:00,
2013-05-16 12:49:00,87.8,54.2,29.75,North,0,2.5,2.5,32,0.00,,,0.00,WUHU216HW,2013-05-16 17:49:00,
2013-05-16 12:54:00,88.2,51.9,29.75,WNW,293,3.4,7.2,29,0.00,,,0.00,WUHU216HW,2013-05-16 17:54:00,
2013-05-16 12:59:00,88.2,51.9,29.75,SE,135,0.9,7.2,29,0.00,,,0.00,WUHU216HW,2013-05-16 17:59:00,
2013-05-16 13:04:00,88.6,50.1,29.75,SE,135,4.0,4.7,27,0.00,,,0.00,WUHU216HW,2013-05-16 18:04:00,
2013-05-16 13:09:00,87.7,51.4,29.75,North,0,7.6,7.6,29,0.00,,,0.00,WUHU216HW,2013-05-16 18:09:00,
2013-05-16 13:14:00,88.6,52.1,29.75,NNW,338,2.7,7.6,29,0.00,,,0.00,WUHU216HW,2013-05-16 18:14:00,
2013-05-16 13:19:00,90.2,54.6,29.75,North,0,0.7,4.7,30,0.00,,,0.00,WUHU216HW,2013-05-16 18:19:00,
2013-05-16 13:24:00,91.8,52.8,29.75,SSW,203,5.4,5.4,27,0.00,,,0.00,WUHU216HW,2013-05-16 18:24:00,
2013-05-16 13:29:00,92.0,52.9,29.75,SSW,203,0.4,5.4,27,0.00,,,0.00,WUHU216HW,2013-05-16 18:29:00,
2013-05-16 13:34:00,91.1,52.2,29.75,North,0,0.4,2.5,27,0.00,,,0.00,WUHU216HW,2013-05-16 18:34:00,
2013-05-16 13:39:00,90.5,51.8,29.75,NNW,338,4.5,4.5,27,0.00,,,0.00,WUHU216HW,2013-05-16 18:39:00,
2013-05-16 13:44:00,90.2,49.2,29.74,WSW,248,0.4,4.5,25,0.00,,,0.00,WUHU216HW,2013-05-16 18:44:00,
2013-05-16 13:49:00,90.2,48.2,29.74,SE,135,4.0,6.9,24,0.00,,,0.00,WUHU216HW,2013-05-16 18:49:00,
2013-05-16 13:54:00,91.3,50.1,29.74,North,0,0.4,6.9,25,0.00,,,0.00,WUHU216HW,2013-05-16 18:54:00,
2013-05-16 13:59:00,92.7,51.3,29.74,WNW,293,2.9,5.6,25,0.00,,,0.00,WUHU216HW,2013-05-16 18:59:00,
2013-05-16 14:04:00,92.3,51.0,29.74,North,0,4.7,5.1,25,0.00,,,0.00,WUHU216HW,2013-05-16 19:04:00,
2013-05-16 14:09:00,93.2,52.8,29.74,West,270,3.4,5.4,26,0.00,,,0.00,WUHU216HW,2013-05-16 19:09:00,
2013-05-16 14:14:00,94.7,51.8,29.74,SW,225,0.9,5.4,24,0.00,,,0.00,WUHU216HW,2013-05-16 19:14:00,
2013-05-16 14:19:00,93.8,50.1,29.74,SE,135,2.7,6.0,23,0.00,,,0.00,WUHU216HW,2013-05-16 19:19:00,
2013-05-16 14:24:00,92.7,50.2,29.74,WSW,248,0.0,6.0,24,0.00,,,0.00,WUHU216HW,2013-05-16 19:24:00,
2013-05-16 14:29:00,93.8,54.5,29.74,North,0,0.7,5.4,27,0.00,,,0.00,WUHU216HW,2013-05-16 19:29:00,
2013-05-16 14:34:00,96.1,54.2,29.73,NNW,338,0.9,3.6,25,0.00,,,0.00,WUHU216HW,2013-05-16 19:34:00,
2013-05-16 14:39:00,97.4,53.1,29.73,North,0,2.0,3.6,23,0.00,,,0.00,WUHU216HW,2013-05-16 19:39:00,
2013-05-16 14:44:00,97.9,54.6,29.73,NW,315,1.6,4.7,24,0.00,,,0.00,WUHU216HW,2013-05-16 19:44:00,
2013-05-16 14:49:00,97.9,50.2,29.73,NW,315,4.7,6.3,20,0.00,,,0.00,WUHU216HW,2013-05-16 19:49:00,
2013-05-16 14:54:00,98.6,53.0,29.73,SSW,203,3.1,6.3,22,0.00,,,0.00,WUHU216HW,2013-05-16 19:54:00,
2013-05-16 14:59:00,97.6,52.1,29.73,NNW,338,1.3,5.4,22,0.00,,,0.00,WUHU216HW,2013-05-16 19:59:00,
2013-05-16 15:04:00,95.6,50.4,29.73,North,0,3.6,6.3,22,0.00,,,0.00,WUHU216HW,2013-05-16 20:04:00,
2013-05-16 15:09:00,95.9,51.9,29.73,NNW,338,1.6,6.3,23,0.00,,,0.00,WUHU216HW,2013-05-16 20:09:00,
2013-05-16 15:14:00,96.8,51.5,29.73,NNE,23,1.3,2.7,22,0.00,,,0.00,WUHU216HW,2013-05-16 20:14:00,
2013-05-16 15:19:00,97.2,52.9,29.73,NNW,338,1.8,3.8,23,0.00,,,0.00,WUHU216HW,2013-05-16 20:19:00,
2013-05-16 15:24:00,97.7,53.4,29.73,WSW,248,0.4,3.8,23,0.00,,,0.00,WUHU216HW,2013-05-16 20:24:00,
2013-05-16 15:29:00,96.3,48.9,29.73,WNW,293,1.6,3.4,20,0.00,,,0.00,WUHU216HW,2013-05-16 20:29:00,
2013-05-16 15:34:00,92.5,46.8,29.73,NW,315,2.0,3.1,21,0.00,,,0.00,WUHU216HW,2013-05-16 20:34:00,
2013-05-16 15:39:00,88.2,45.5,29.73,East,90,2.7,5.6,23,0.00,,,0.00,WUHU216HW,2013-05-16 20:39:00,
2013-05-16 15:44:00,86.8,44.2,29.73,NNW,338,2.2,5.6,23,0.00,,,0.00,WUHU216HW,2013-05-16 20:44:00,
2013-05-16 15:49:00,86.8,45.3,29.73,WSW,248,0.2,2.2,24,0.00,,,0.00,WUHU216HW,2013-05-16 20:49:00,
2013-05-16 15:54:00,87.5,48.0,29.72,ENE,68,0.0,1.1,26,0.00,,,0.00,WUHU216HW,2013-05-16 20:54:00,
2013-05-16 15:59:00,88.4,48.8,29.72,ESE,113,0.4,1.1,26,0.00,,,0.00,WUHU216HW,2013-05-16 20:59:00,
2013-05-16 16:04:00,89.6,48.8,29.73,NNW,338,0.0,1.8,25,0.00,,,0.00,WUHU216HW,2013-05-16 21:04:00,
2013-05-16 16:09:00,91.3,50.1,29.72,SSW,203,3.1,3.8,25,0.00,,,0.00,WUHU216HW,2013-05-16 21:09:00,
2013-05-16 16:14:00,94.0,52.4,29.72,South,180,0.9,3.8,25,0.00,,,0.00,WUHU216HW,2013-05-16 21:14:00,
2013-05-16 16:19:00,94.1,51.4,29.72,SW,225,1.1,2.5,24,0.00,,,0.00,WUHU216HW,2013-05-16 21:19:00,
2013-05-16 16:24:00,92.5,49.0,29.72,WSW,248,1.1,4.5,23,0.00,,,0.00,WUHU216HW,2013-05-16 21:24:00,
2013-05-16 16:29:00,91.4,49.2,29.72,NW,315,2.5,4.5,24,0.00,,,0.00,WUHU216HW,2013-05-16 21:29:00,
2013-05-16 16:34:00,92.7,51.3,29.72,WNW,293,0.4,2.5,25,0.00,,,0.00,WUHU216HW,2013-05-16 21:34:00,
2013-05-16 16:39:00,95.4,54.7,29.72,ENE,68,0.0,2.2,26,0.00,,,0.00,WUHU216HW,2013-05-16 21:39:00,
2013-05-16 16:44:00,95.8,50.6,29.72,ESE,113,1.1,2.0,22,0.00,,,0.00,WUHU216HW,2013-05-16 21:44:00,
2013-05-16 16:49:00,96.1,52.0,29.72,SSW,203,0.4,2.5,23,0.00,,,0.00,WUHU216HW,2013-05-16 21:49:00,
2013-05-16 16:54:00,95.9,50.8,29.72,NW,315,0.7,4.0,22,0.00,,,0.00,WUHU216HW,2013-05-16 21:54:00,
2013-05-16 16:59:00,95.4,50.2,29.72,ESE,113,0.4,4.0,22,0.00,,,0.00,WUHU216HW,2013-05-16 21:59:00,
2013-05-16 17:04:00,95.8,51.7,29.72,NNW,338,1.6,1.6,23,0.00,,,0.00,WUHU216HW,2013-05-16 22:04:00,
2013-05-16 17:09:00,95.6,51.5,29.72,NW,315,0.0,2.2,23,0.00,,,0.00,WUHU216HW,2013-05-16 22:09:00,
2013-05-16 17:14:00,95.0,50.0,29.73,WSW,248,1.1,2.2,22,0.00,,,0.00,WUHU216HW,2013-05-16 22:14:00,
2013-05-16 17:19:00,94.1,50.3,29.72,NW,315,0.4,4.0,23,0.00,,,0.00,WUHU216HW,2013-05-16 22:19:00,
2013-05-16 17:24:00,92.7,46.9,29.72,South,180,3.4,5.8,21,0.00,,,0.00,WUHU216HW,2013-05-16 22:24:00,
2013-05-16 17:29:00,91.4,48.2,29.73,North,0,2.5,5.8,23,0.00,,,0.00,WUHU216HW,2013-05-16 22:29:00,
2013-05-16 17:34:00,92.5,50.0,29.73,NW,315,1.8,3.4,24,0.00,,,0.00,WUHU216HW,2013-05-16 22:34:00,
2013-05-16 17:39:00,93.2,49.6,29.73,NNW,338,5.1,5.1,23,0.00,,,0.00,WUHU216HW,2013-05-16 22:39:00,
2013-05-16 17:44:00,93.1,49.4,29.73,North,0,1.3,5.1,23,0.00,,,0.00,WUHU216HW,2013-05-16 22:44:00,
2013-05-16 17:49:00,92.2,46.5,29.73,NW,315,1.8,3.4,21,0.00,,,0.00,WUHU216HW,2013-05-16 22:49:00,
2013-05-16 17:54:00,92.2,49.8,29.73,SSW,203,0.4,3.4,24,0.00,,,0.00,WUHU216HW,2013-05-16 22:54:00,
2013-05-16 17:59:00,93.2,50.7,29.73,North,0,1.1,3.4,24,0.00,,,0.00,WUHU216HW,2013-05-16 22:59:00,
2013-05-16 18:04:00,94.5,50.6,29.73,North,0,0.7,2.7,23,0.00,,,0.00,WUHU216HW,2013-05-16 23:04:00,
2013-05-16 18:09:00,94.9,51.0,29.72,North,0,1.3,2.7,23,0.00,,,0.00,WUHU216HW,2013-05-16 23:09:00,
2013-05-16 18:14:00,94.3,50.5,29.72,North,0,1.1,1.6,23,0.00,,,0.00,WUHU216HW,2013-05-16 23:14:00,
2013-05-16 18:19:00,93.6,49.9,29.72,North,0,1.1,2.0,23,0.00,,,0.00,WUHU216HW,2013-05-16 23:19:00,
2013-05-16 18:24:00,92.7,49.2,29.72,North,0,1.1,2.0,23,0.00,,,0.00,WUHU216HW,2013-05-16 23:24:00,
2013-05-16 18:29:00,92.5,50.0,29.72,North,0,0.7,2.0,24,0.00,,,0.00,WUHU216HW,2013-05-16 23:29:00,
2013-05-16 18:34:00,92.9,51.5,29.72,North,0,0.0,2.0,25,0.00,,,0.00,WUHU216HW,2013-05-16 23:34:00,
2013-05-16 18:39:00,93.2,52.8,29.72,North,0,0.7,0.7,26,0.00,,,0.00,WUHU216HW,2013-05-16 23:39:00,
2013-05-16 18:44:00,93.6,52.0,29.72,North,0,0.0,0.7,25,0.00,,,0.00,WUHU216HW,2013-05-16 23:44:00,
2013-05-16 18:49:00,93.8,52.2,29.72,North,0,0.4,0.4,25,0.00,,,0.00,WUHU216HW,2013-05-16 23:49:00,
2013-05-16 18:54:00,94.1,53.7,29.72,North,0,0.0,0.7,26,0.00,,,0.00,WUHU216HW,2013-05-16 23:54:00,
2013-05-16 18:59:00,94.0,52.4,29.72,North,0,0.0,0.7,25,0.00,,,0.00,WUHU216HW,2013-05-16 23:59:00,
2013-05-16 19:04:00,93.2,52.8,29.72,North,0,0.0,0.7,26,0.00,,,0.00,WUHU216HW,2013-05-17 00:04:00,
2013-05-16 19:09:00,92.2,50.9,29.73,North,0,0.0,0.4,25,0.00,,,0.00,WUHU216HW,2013-05-17 00:09:00,
2013-05-16 19:14:00,90.9,49.9,29.73,North,0,0.0,0.4,25,0.00,,,0.00,WUHU216HW,2013-05-17 00:14:00,
2013-05-16 19:19:00,89.6,49.9,29.72,North,0,0.0,0.4,26,0.00,,,0.00,WUHU216HW,2013-05-17 00:19:00,
2013-05-16 19:24:00,88.2,48.6,29.73,ESE,113,1.3,1.3,26,0.00,,,0.00,WUHU216HW,2013-05-17 00:24:00,
2013-05-16 19:29:00,85.5,51.4,29.73,ESE,113,5.8,6.9,31,0.00,,,0.00,WUHU216HW,2013-05-17 00:29:00,
2013-05-16 19:34:00,80.3,51.6,29.73,East,90,6.9,7.6,37,0.00,,,0.00,WUHU216HW,2013-05-17 00:34:00,
2013-05-16 19:39:00,77.6,51.4,29.73,ESE,113,6.0,7.6,40,0.00,,,0.00,WUHU216HW,2013-05-17 00:39:00,
2013-05-16 19:44:00,76.3,51.0,29.74,East,90,3.1,7.6,41,0.00,,,0.00,WUHU216HW,2013-05-17 00:44:00,
2013-05-16 19:49:00,75.6,50.9,29.75,East,90,5.8,6.7,42,0.00,,,0.00,WUHU216HW,2013-05-17 00:49:00,
2013-05-16 19:54:00,75.1,51.0,29.75,East,90,4.3,6.5,43,0.00,,,0.00,WUHU216HW,2013-05-17 00:54:00,
2013-05-16 19:59:00,74.5,51.1,29.75,East,90,5.4,6.9,44,0.00,,,0.00,WUHU216HW,2013-05-17 00:59:00,
2013-05-16 20:04:00,73.8,51.0,29.76,ESE,113,4.9,6.9,45,0.00,,,0.00,WUHU216HW,2013-05-17 01:04:00,
2013-05-16 20:08:00,73.3,50.5,29.76,ESE,113,6.5,6.5,45,0.00,,,0.00,WUHU216HW,2013-05-17 01:08:00,
2013-05-16 20:13:00,72.7,50.1,29.76,East,90,3.8,6.5,45,0.00,,,0.00,WUHU216HW,2013-05-17 01:13:00,
2013-05-16 20:18:00,72.4,50.3,29.77,East,90,4.7,4.9,46,0.00,,,0.00,WUHU216HW,2013-05-17 01:18:00,
2013-05-16 20:23:00,71.6,50.2,29.77,ESE,113,4.9,4.9,47,0.00,,,0.00,WUHU216HW,2013-05-17 01:23:00,
2013-05-16 20:28:00,71.1,49.8,29.77,East,90,2.0,4.9,47,0.00,,,0.00,WUHU216HW,2013-05-17 01:28:00,
2013-05-16 20:33:00,70.7,50.1,29.78,ESE,113,3.4,4.0,48,0.00,,,0.00,WUHU216HW,2013-05-17 01:33:00,
2013-05-16 20:38:00,70.4,49.7,29.78,ESE,113,4.0,4.7,48,0.00,,,0.00,WUHU216HW,2013-05-17 01:38:00,
2013-05-16 20:43:00,70.2,49.0,29.78,East,90,1.6,4.7,47,0.00,,,0.00,WUHU216HW,2013-05-17 01:43:00,
2013-05-16 20:48:00,69.7,49.1,29.79,ESE,113,1.3,4.0,48,0.00,,,0.00,WUHU216HW,2013-05-17 01:48:00,
2013-05-16 20:53:00,69.5,48.3,29.79,East,90,2.5,2.9,47,0.00,,,0.00,WUHU216HW,2013-05-17 01:53:00,
2013-05-16 20:58:00,68.9,47.8,29.79,NW,315,0.0,2.9,47,0.00,,,0.00,WUHU216HW,2013-05-17 01:58:00,
2013-05-16 21:03:00,68.8,48.2,29.79,West,270,1.1,1.1,48,0.00,,,0.00,WUHU216HW,2013-05-17 02:03:00,
2013-05-16 21:08:00,68.4,47.9,29.79,East,90,2.5,2.5,48,0.00,,,0.00,WUHU216HW,2013-05-17 02:08:00,
2013-05-16 21:13:00,68.4,47.9,29.79,ESE,113,6.0,6.0,48,0.00,,,0.00,WUHU216HW,2013-05-17 02:13:00,
2013-05-16 21:18:00,68.2,47.2,29.79,ESE,113,2.5,6.0,47,0.00,,,0.00,WUHU216HW,2013-05-17 02:18:00,
2013-05-16 21:23:00,68.0,47.6,29.80,ESE,113,7.6,7.6,48,0.00,,,0.00,WUHU216HW,2013-05-17 02:23:00,
2013-05-16 21:28:00,68.0,47.6,29.80,ESE,113,1.8,7.6,48,0.00,,,0.00,WUHU216HW,2013-05-17 02:28:00,
2013-05-16 21:33:00,67.7,46.7,29.80,ESE,113,4.0,6.0,47,0.00,,,0.00,WUHU216HW,2013-05-17 02:33:00,
2013-05-16 21:38:00,67.7,46.7,29.81,ESE,113,5.4,5.8,47,0.00,,,0.00,WUHU216HW,2013-05-17 02:38:00,
2013-05-16 21:43:00,67.3,46.4,29.81,ESE,113,5.4,5.4,47,0.00,,,0.00,WUHU216HW,2013-05-17 02:43:00,
2013-05-16 21:48:00,67.3,46.4,29.81,East,90,5.8,6.5,47,0.00,,,0.00,WUHU216HW,2013-05-17 02:48:00,
2013-05-16 21:53:00,67.1,46.2,29.81,ESE,113,3.4,6.5,47,0.00,,,0.00,WUHU216HW,2013-05-17 02:53:00,
2013-05-16 21:58:00,67.0,46.6,29.81,ESE,113,3.1,5.8,48,0.00,,,0.00,WUHU216HW,2013-05-17 02:58:00,
2013-05-16 22:03:00,66.8,46.4,29.81,ESE,113,5.4,5.4,48,0.00,,,0.00,WUHU216HW,2013-05-17 03:03:00,
2013-05-16 22:08:00,66.8,46.4,29.81,ESE,113,2.5,5.4,48,0.00,,,0.00,WUHU216HW,2013-05-17 03:08:00,
2013-05-16 22:13:00,66.6,45.7,29.81,East,90,6.3,6.3,47,0.00,,,0.00,WUHU216HW,2013-05-17 03:13:00,
2013-05-16 22:18:00,66.2,45.4,29.81,ESE,113,4.9,6.9,47,0.00,,,0.00,WUHU216HW,2013-05-17 03:18:00,
2013-05-16 22:23:00,66.1,44.7,29.81,ESE,113,5.4,6.9,46,0.00,,,0.00,WUHU216HW,2013-05-17 03:23:00,
2013-05-16 22:28:00,65.7,44.3,29.81,East,90,6.9,10.1,46,0.00,,,0.00,WUHU216HW,2013-05-17 03:28:00,
2013-05-16 22:33:00,65.5,44.1,29.81,ESE,113,6.9,10.1,46,0.00,,,0.00,WUHU216HW,2013-05-17 03:33:00,
2013-05-16 22:38:00,65.2,43.2,29.81,ESE,113,3.6,10.3,45,0.00,,,0.00,WUHU216HW,2013-05-17 03:38:00,
2013-05-16 22:43:00,64.8,42.2,29.81,East,90,10.5,10.5,44,0.00,,,0.00,WUHU216HW,2013-05-17 03:43:00,
2013-05-16 22:48:00,64.6,42.7,29.81,ESE,113,5.8,11.9,45,0.00,,,0.00,WUHU216HW,2013-05-17 03:48:00,
2013-05-16 22:53:00,64.4,42.0,29.81,East,90,6.5,11.9,44,0.00,,,0.00,WUHU216HW,2013-05-17 03:53:00,
2013-05-16 22:58:00,64.3,41.8,29.81,East,90,6.7,8.5,44,0.00,,,0.00,WUHU216HW,2013-05-17 03:58:00,
2013-05-16 23:01:00,64.1,41.6,29.82,ESE,113,5.6,8.5,44,0.00,,,0.00,WUHU216HW,2013-05-17 04:01:00,
2013-05-16 23:06:00,63.9,41.4,29.82,ESE,113,4.9,8.3,44,0.00,,,0.00,WUHU216HW,2013-05-17 04:06:00,
2013-05-16 23:11:00,63.9,41.4,29.82,ESE,113,5.1,9.8,44,0.00,,,0.00,WUHU216HW,2013-05-17 04:11:00,
2013-05-16 23:16:00,63.7,41.9,29.82,ESE,113,5.1,9.8,45,0.00,,,0.00,WUHU216HW,2013-05-17 04:16:00,
2013-05-16 23:21:00,63.4,41.5,29.82,East,90,4.7,8.1,45,0.00,,,0.00,WUHU216HW,2013-05-17 04:21:00,
2013-05-16 23:26:00,63.2,42.0,29.82,East,90,4.9,5.1,46,0.00,,,0.00,WUHU216HW,2013-05-17 04:26:00,
2013-05-16 23:31:00,63.0,42.3,29.82,ESE,113,3.8,6.9,47,0.00,,,0.00,WUHU216HW,2013-05-17 04:31:00,
2013-05-16 23:36:00,62.6,42.6,29.82,ESE,113,2.7,6.9,48,0.00,,,0.00,WUHU216HW,2013-05-17 04:36:00,
2013-05-16 23:41:00,62.5,43.0,29.82,East,90,2.7,4.9,49,0.00,,,0.00,WUHU216HW,2013-05-17 04:41:00,
2013-05-16 23:46:00,62.3,42.8,29.82,East,90,4.7,5.4,49,0.00,,,0.00,WUHU216HW,2013-05-17 04:46:00,
2013-05-16 23:51:00,62.1,42.7,29.82,ESE,113,7.8,7.8,49,0.00,,,0.00,WUHU216HW,2013-05-17 04:51:00,
2013-05-16 23:56:00,61.9,42.5,29.82,East,90,4.3,7.8,49,0.00,,,0.00,WUHU216HW,2013-05-17 04:56:00,